Flag for Dominican Republic Weather past 2 weeks in Punta Cana, Dominican Republic

Now
88 °F

Scattered clouds.


Feels Like: 98 °F
Forecast: 75 / 88 °F
Wind: 5 mph from Southeast

Location: Punta Cana

Current Time: Oct 23, 2014 at 1:20:11 PM

Latest Report: Oct 23, 2014 at 1:00 PM


Visibility: N/A

Pressure: 29.92 "Hg

Humidity: 66%

Dew point: 75 °F

Location of Punta CanaLocation

Historic Weather in Punta Cana — Graph

°F

Punta Cana temperature yesterday

Maximum temperature yesterday: 88 °F (at 11:00 AM)
Minimum temperature yesterday: 73 °F (at 11:00 PM)
Average temperature yesterday: 82 °F

Past Weeks' High & Low Weather Summary

 TemperatureHumidityPressure
High90 °F (Oct 8, 2:00 PM)100% (Oct 9, 1:00 AM)30.01 "Hg (Oct 9, 1:00 AM)
Low72 °F (Oct 15, 1:00 AM)59% (Oct 8, 3:00 PM)29.80 "Hg (Oct 9, 3:00 PM)
Average81 °F82%29.92 "Hg
* Reported Oct 8 12:00 Noon — Oct 23 12:00 Noon, Punta Cana, Weather by CustomWeather, © 2014

Note: Actual official high and low records may vary slightly from our data, if they occured in-between our weather recording intervals... More about our weather records

Advertising

Punta Cana weather history for previous 24 hours

 ConditionsComfort  
Time TempWeatherWind HumidityBarometerVisibility
12:00 PM
Oct 23
90 °FScattered clouds.8 mph59%29.95 "HgN/A
11:00 AM88 °FScattered clouds.9 mph62%29.95 "HgN/A
10:00 AM86 °FPassing clouds.7 mph66%29.95 "HgN/A
9:00 AM84 °FPassing clouds.6 mph70%29.95 "HgN/A
8:00 AM81 °FPassing clouds.No wind84%29.92 "HgN/A
7:00 AM73 °FPassing clouds.No wind94%29.92 "HgN/A
6:00 AM73 °FPassing clouds.No wind94%29.89 "HgN/A
5:00 AM73 °FPassing clouds.No wind100%29.89 "HgN/A
4:00 AM75 °FPassing clouds.No wind94%29.89 "HgN/A
3:00 AM77 °FPassing clouds.No wind94%29.92 "HgN/A
2:00 AM77 °FPassing clouds.No wind94%29.92 "HgN/A
1:00 AM75 °FPassing clouds.No wind94%29.95 "HgN/A
12:00 AM75 °FPassing clouds.No wind94%29.95 "HgN/A
11:00 PM
Oct 22
73 °FPassing clouds.No wind94%29.95 "HgN/A
10:00 PM75 °FPassing clouds.No wind89%29.95 "HgN/A
9:00 PM77 °FPassing clouds.7 mph94%29.92 "HgN/A
8:00 PM77 °FPassing clouds.3 mph83%29.92 "HgN/A
7:00 PM79 °FPassing clouds.3 mph84%29.89 "HgN/A
6:00 PM82 °FPassing clouds.5 mph74%29.89 "HgN/A
5:00 PM86 °FPassing clouds.6 mph66%29.89 "HgN/A
4:00 PM88 °FPassing clouds.7 mph62%29.89 "HgN/A
3:00 PM88 °FPassing clouds.8 mph62%29.89 "HgN/A
2:00 PM88 °FPassing clouds.7 mph62%29.92 "HgN/A
1:00 PM88 °FPassing clouds.9 mph62%29.95 "HgN/A
Weather by CustomWeather, © 2014

See weather overviewHow to use our weather pages